User: anonymous
Location: The Jewett Observatory
(46.7288°N, 117.1525°W)
Time: 07:28:48
(UTC-07:00)
Language:

Cosmos 1844 Rocket - Orbit

View from above orbital plane
View from above orbital plane
View from above satellite
View from above satellite

Ground track
Ground track

The orbit data is extracted from the following two-line orbital elements,

1 17974U 87041B   14274.82531802 -.00000027  00000-0  10549-4 0  2272
2 17974 071.0096 194.1925 0011615 105.3707 313.6098 14.17118454416514
Epoch (UTC): 01 October 2014 19:48:27
Eccentricity: 0.0011615
inclination: 71.0096°
perigee height: 827 km
apogee height: 843 km
right ascension of ascending node: 194.1925°
argument of perigee: 105.3707°
revolutions per day: 14.17118454
mean anomaly at epoch: 313.6098°
orbit number at epoch: 41651

The dashed part of the orbit path shows where the satellite is in the earth's shadow,  

DLR